FW3182 Weather Reports


time (UTC)temp
C
wind
direction
speed
KPH
gust
KPH
rain 1hr
cm
rain 24hr
cm
rain mn
cm
humidity
%
barometer
mb
20260906172203 37 73 1.6 4.8 0.00 0.00 0.00 42 1011.6
20260906171703 37 59 4.8 11.3 0.00 0.00 0.00 42 1011.7
20260906171204 37 104 1.6 8.0 0.00 0.00 0.00 44 1011.7
20260906170704 37 35 1.6 11.3 0.00 0.00 0.00 44 1011.8
20260906165704 36 187 0.0 1.6 0.00 0.00 0.00 47 1012.0
20260906165204 35 180 0.0 4.8 0.00 0.00 0.00 47 1012.0
20260906164703 35 69 1.6 9.7 0.00 0.00 0.00 47 1012.0
20260906164204 36 28 3.2 9.7 0.00 0.00 0.00 47 1012.2
20260906163704 35 0 1.6 4.8 0.00 0.00 0.00 48 1012.2
20260906162704 35 124 0.0 1.6 0.00 0.00 0.00 49 1012.2
20260906161703 35 49 1.6 4.8 0.00 0.00 0.00 49 1012.3
20260906161203 35 212 1.6 4.8 0.00 0.00 0.00 50 1012.3
20260906160704 35 297 0.0 3.2 0.00 0.00 0.00 51 1012.3
20260906160204 35 304 0.0 3.2 0.00 0.00 0.00 51 1012.3
20260906155703 35 69 1.6 4.8 0.00 0.00 0.00 51 1012.3
20260906155204 35 319 0.0 0.0 0.00 0.00 0.00 51 1012.3
20260906154703 35 287 1.6 3.2 0.00 0.00 0.00 51 1012.3
20260906153704 33 201 0.0 3.2 0.00 0.00 0.00 53 1012.4
20260906153203 33 323 1.6 3.2 0.00 0.00 0.00 56 1012.3
20260906152704 33 50 1.6 4.8 0.00 0.00 0.00 55 1012.3
20260906152204 33 189 0.0 3.2 0.00 0.00 0.00 58 1012.3
20260906151703 32 200 0.0 3.2 0.00 0.00 0.00 59 1012.3
20260906151204 32 155 1.6 3.2 0.00 0.00 0.00 60 1012.3
20260906150204 31 202 3.2 4.8 0.00 0.00 0.00 61 1012.2
20260906145703 31 211 1.6 4.8 0.00 0.00 0.00 61 1012.2
20260906145204 31 190 1.6 4.8 0.00 0.00 0.00 61 1012.1
20260906144703 31 189 3.2 4.8 0.00 0.00 0.00 61 1012.2
20260906144203 31 193 1.6 4.8 0.00 0.00 0.00 62 1012.2
20260906143704 31 195 3.2 4.8 0.00 0.00 0.00 61 1012.2
20260906143203 31 199 0.0 3.2 0.00 0.00 0.00 60 1012.2
20260906142704 31 163 0.0 0.0 0.00 0.00 0.00 61 1012.2
20260906142204 31 56 0.0 0.0 0.00 0.00 0.00 62 1012.3
20260906141204 31 56 0.0 0.0 0.00 0.00 0.00 65 1012.3
20260906140704 30 56 0.0 0.0 0.00 0.00 0.00 66 1012.2
20260906140204 29 47 0.0 0.0 0.00 0.00 0.00 69 1012.2
20260906135703 28 47 0.0 0.0 0.00 0.00 0.00 71 1012.2
20260906135204 28 47 0.0 0.0 0.00 0.00 0.00 71 1012.2
20260906133704 28 99 0.0 0.0 0.00 0.00 0.00 72 1012.2
20260906133203 27 99 0.0 0.0 0.00 0.00 0.00 73 1012.1
20260906132704 27 99 0.0 0.0 0.00 0.00 0.00 73 1012.1
20260906132203 26 99 0.0 0.0 0.00 0.00 0.00 75 1012.1
20260906131703 26 99 0.0 0.0 0.00 0.00 0.00 77 1012.1
20260906131204 26 99 0.0 0.0 0.00 0.00 0.00 76 1012.1
20260906130203 25 99 0.0 0.0 0.00 0.00 0.00 79 1011.9
20260906125704 24 99 0.0 0.0 0.00 0.00 0.00 80 1011.7
20260906125204 23 99 0.0 0.0 0.00 0.00 0.00 82 1011.8
20260906124203 23 99 0.0 0.0 0.00 0.00 0.00 81 1011.8
20260906123704 23 99 0.0 0.0 0.00 0.00 0.00 82 1011.6
20260906123204 23 99 0.0 0.0 0.00 0.00 0.00 82 1011.6
20260906122203 23 99 0.0 0.0 0.00 0.00 0.00 81 1011.6
20260906121204 23 99 0.0 0.0 0.00 0.00 0.00 81 1011.5
20260906120203 23 99 0.0 0.0 0.00 0.00 0.00 81 1011.4
20260906115704 23 99 0.0 0.0 0.00 0.00 0.00 81 1011.3
20260906114703 23 204 0.0 0.0 0.00 0.00 0.00 80 1011.2
20260906114204 23 204 0.0 0.0 0.00 0.00 0.00 79 1011.1
20260906113704 23 204 0.0 0.0 0.00 0.00 0.00 79 1011.0
20260906113204 23 204 0.0 0.0 0.00 0.00 0.00 79 1011.0
20260906112703 23 204 0.0 0.0 0.00 0.00 0.00 80 1011.0
20260906112203 22 204 0.0 0.0 0.00 0.00 0.00 81 1011.0
20260906111704 22 204 0.0 0.0 0.00 0.00 0.00 82 1011.0
20260906111203 22 204 0.0 0.0 0.00 0.00 0.00 83 1011.0
20260906110204 22 204 0.0 0.0 0.00 0.00 0.00 82 1011.0
20260906105703 23 204 0.0 0.0 0.00 0.00 0.00 81 1011.0
20260906105203 23 204 0.0 0.0 0.00 0.00 0.00 81 1010.9
20260906104704 23 204 0.0 0.0 0.00 0.00 0.00 81 1010.8
20260906104204 23 204 0.0 0.0 0.00 0.00 0.00 80 1010.9
20260906103703 23 204 0.0 0.0 0.00 0.00 0.00 80 1010.8
20260906102704 23 232 0.0 0.0 0.00 0.00 0.00 79 1010.8
20260906102203 23 232 0.0 0.0 0.00 0.00 0.00 78 1010.7
20260906101704 23 232 0.0 0.0 0.00 0.00 0.00 78 1010.7
20260906100703 23 232 0.0 0.0 0.00 0.00 0.00 78 1010.7
20260906100203 23 232 0.0 0.0 0.00 0.00 0.00 78 1010.7
20260906095703 23 232 0.0 0.0 0.00 0.00 0.00 78 1010.7
20260906094704 23 232 0.0 0.0 0.00 0.00 0.00 80 1010.7
20260906094204 23 232 0.0 0.0 0.00 0.00 0.00 80 1010.7
20260906093704 23 232 0.0 0.0 0.00 0.00 0.00 80 1010.7
20260906093203 23 232 0.0 0.0 0.00 0.00 0.00 79 1010.7
20260906092704 23 232 0.0 0.0 0.00 0.00 0.00 79 1010.7
20260906092204 23 232 0.0 0.0 0.00 0.00 0.00 78 1010.7
20260906090704 24 232 0.0 0.0 0.00 0.00 0.00 77 1010.5
20260906090203 23 232 0.0 0.0 0.00 0.00 0.00 77 1010.5
20260906085703 23 232 0.0 0.0 0.00 0.00 0.00 77 1010.6
20260906085204 24 232 0.0 0.0 0.00 0.00 0.00 78 1010.6
20260906084704 24 232 0.0 0.0 0.00 0.00 0.00 76 1010.5
20260906083704 24 232 0.0 0.0 0.00 0.00 0.00 76 1010.5
20260906083203 24 232 0.0 0.0 0.00 0.00 0.00 76 1010.5
20260906082704 24 232 0.0 0.0 0.00 0.00 0.00 76 1010.6
20260906082204 25 232 0.0 0.0 0.00 0.00 0.00 77 1010.6
20260906081704 25 232 0.0 0.0 0.00 0.00 0.00 75 1010.5
20260906081203 25 232 0.0 0.0 0.00 0.00 0.00 76 1010.5
20260906080204 25 232 0.0 0.0 0.00 0.00 0.00 74 1010.5
20260906075703 25 232 0.0 0.0 0.00 0.00 0.00 73 1010.5
20260906075204 25 232 0.0 0.0 0.00 0.00 0.00 73 1010.5
20260906074203 25 232 0.0 0.0 0.00 0.00 0.00 72 1010.5
20260906073704 25 232 0.0 0.0 0.00 0.00 0.00 73 1010.5
20260906072703 25 232 0.0 0.0 0.00 0.00 0.00 72 1010.6
20260906072204 25 232 0.0 0.0 0.00 0.00 0.00 73 1010.6
20260906071703 25 232 0.0 0.0 0.00 0.00 0.00 72 1010.6
20260906071204 25 232 0.0 0.0 0.00 0.00 0.00 72 1010.5
20260906070703 25 232 0.0 0.0 0.00 0.00 0.00 71 1010.5
20260906070204 25 232 0.0 0.0 0.00 0.00 0.00 71 1010.5
20260906065704 25 232 0.0 0.0 0.00 0.00 0.00 71 1010.5
20260906065204 25 232 0.0 0.0 0.00 0.00 0.00 71 1010.6
20260906064703 25 232 0.0 0.0 0.00 0.00 0.00 71 1010.6
20260906064204 25 232 0.0 0.0 0.00 0.00 0.00 71 1010.6
20260906063703 25 232 0.0 0.0 0.00 0.00 0.00 71 1010.6
20260906063203 25 232 0.0 0.0 0.00 0.00 0.00 71 1010.7
20260906062704 25 232 0.0 0.0 0.00 0.00 0.00 72 1010.6
20260906062203 25 232 0.0 0.0 0.00 0.00 0.00 74 1010.7
20260906061704 25 232 0.0 0.0 0.00 0.00 0.00 73 1010.6
20260906060704 26 232 0.0 0.0 0.00 0.00 0.00 72 1010.6
20260906060204 26 232 0.0 0.0 0.00 0.00 0.00 71 1010.5
20260906055704 26 232 0.0 0.0 0.00 0.00 0.00 70 1010.6
20260906054703 26 232 0.0 0.0 0.00 0.00 0.00 70 1010.5
20260906054204 26 232 0.0 0.0 0.00 0.00 0.00 71 1010.7
20260906053704 26 232 0.0 0.0 0.00 0.00 0.00 70 1010.6
20260906053204 26 232 0.0 0.0 0.00 0.00 0.00 71 1010.5
20260906052703 26 232 0.0 0.0 0.00 0.00 0.00 71 1010.4
20260906052204 26 232 0.0 0.0 0.00 0.00 0.00 72 1010.5
20260906051703 26 232 0.0 0.0 0.00 0.00 0.00 71 1010.5
20260906051204 26 232 0.0 0.0 0.00 0.00 0.00 72 1010.5
20260906050704 26 232 0.0 0.0 0.00 0.00 0.00 71 1010.4
20260906050204 26 76 0.0 0.0 0.00 0.00 0.00 70 1010.4
20260906045703 27 130 0.0 0.0 0.00 0.00 0.00 71 1010.4
20260906045204 27 130 0.0 0.0 0.00 0.00 0.00 68 1010.4
20260906044704 27 130 0.0 0.0 0.00 0.00 0.00 67 1010.5
20260906044203 27 130 0.0 0.0 0.00 0.00 0.00 67 1010.4
20260906043704 27 60 0.0 0.0 0.00 0.00 0.00 66 1010.4
20260906043204 27 70 0.0 0.0 0.00 0.00 0.00 68 1010.5
20260906042704 27 75 0.0 0.0 0.00 0.00 0.00 68 1010.5
20260906041704 27 75 0.0 0.0 0.00 0.00 0.00 67 1010.3
20260906041204 27 75 0.0 0.0 0.00 0.00 0.00 66 1010.4
20260906040703 28 75 0.0 0.0 0.00 0.00 0.00 65 1010.4
20260906035703 28 75 0.0 0.0 0.00 0.00 0.00 64 1010.3
20260906035204 28 75 0.0 0.0 0.00 0.00 0.00 63 1010.3
20260906034703 28 75 0.0 0.0 0.00 0.00 0.00 62 1010.3
20260906034204 29 47 0.0 0.0 0.00 0.00 0.00 62 1010.3
20260906032704 29 46 0.0 0.0 0.00 0.00 0.00 61 1010.2
20260906032204 29 53 0.0 0.0 0.00 0.00 0.00 61 1010.3
20260906031703 29 64 0.0 0.0 0.00 0.00 0.00 61 1010.2
20260906031204 28 64 0.0 0.0 0.00 0.00 0.00 61 1010.1
20260906030704 29 64 0.0 0.0 0.00 0.00 0.00 61 1010.2
20260906030203 29 64 0.0 0.0 0.00 0.00 0.00 61 1010.1
20260906025704 30 64 0.0 0.0 0.00 0.00 0.00 59 1010.2
20260906025203 30 64 0.0 0.0 0.00 0.00 0.00 59 1010.0
20260906024704 30 64 0.0 1.6 0.00 0.00 0.00 58 1009.9
20260906024203 30 64 0.0 1.6 0.00 0.00 0.00 58 1009.9
20260906023704 30 64 0.0 3.2 0.00 0.00 0.00 58 1009.9
20260906023203 30 45 1.6 4.8 0.00 0.00 0.00 58 1009.8
20260906021703 30 59 1.6 4.8 0.00 0.00 0.00 60 1009.8
20260906021204 30 23 0.0 3.2 0.00 0.00 0.00 60 1009.6
20260906020703 30 23 0.0 0.0 0.00 0.00 0.00 59 1009.5
20260906020204 30 23 0.0 0.0 0.00 0.00 0.00 59 1009.5
20260906015703 31 23 0.0 4.8 0.00 0.00 0.00 58 1009.5
20260906015204 31 8 0.0 0.0 0.00 0.00 0.00 56 1009.4
20260906014703 31 55 0.0 4.8 0.00 0.00 0.00 55 1009.3
20260906014204 32 73 1.6 4.8 0.00 0.00 0.00 54 1009.3
20260906013204 32 68 3.2 4.8 0.00 0.00 0.00 52 1009.1
20260906012704 32 11 0.0 0.0 0.00 0.00 0.00 51 1009.0
20260906012204 32 11 0.0 0.0 0.00 0.00 0.00 51 1008.9
20260906011703 32 11 0.0 0.0 0.00 0.00 0.00 51 1008.9
20260906011204 32 11 0.0 0.0 0.00 0.00 0.00 51 1008.8
20260906005704 32 11 0.0 0.0 0.00 0.00 0.00 50 1008.7
20260906004704 32 11 0.0 0.0 0.00 0.00 0.00 49 1008.6
20260906003703 33 11 0.0 0.0 0.00 0.00 0.00 48 1008.7
20260906003203 33 11 0.0 0.0 0.00 0.00 0.00 48 1008.6
20260906002704 34 11 0.0 0.0 0.00 0.00 0.00 47 1008.6
20260906002203 35 11 0.0 0.0 0.00 0.00 0.00 46 1008.6
20260906001704 35 11 0.0 0.0 0.00 0.00 0.00 45 1008.5
20260906001204 36 11 0.0 0.0 0.00 0.00 0.00 44 1008.6
20260906000703 36 11 0.0 0.0 0.00 0.00 0.00 44 1008.6
20260906000204 36 11 0.0 0.0 0.00 0.00 0.00 42 1008.6
20260905235703 37 11 0.0 0.0 0.00 0.00 0.00 41 1008.6
20260905235204 37 11 0.0 1.6 0.00 0.00 0.00 40 1008.6
20260905234704 37 55 0.0 1.6 0.00 0.00 0.00 40 1008.6
20260905234203 38 46 0.0 3.2 0.00 0.00 0.00 40 1008.6
20260905233704 38 197 0.0 1.6 0.00 0.00 0.00 38 1008.6
20260905233204 38 238 0.0 1.6 0.00 0.00 0.00 39 1008.6
20260905232703 38 238 0.0 3.2 0.00 0.00 0.00 39 1008.6
20260905231704 38 347 0.0 1.6 0.00 0.00 0.00 37 1008.7
20260905231203 38 336 0.0 1.6 0.00 0.00 0.00 37 1008.7
20260905230704 38 56 0.0 0.0 0.00 0.00 0.00 38 1008.7
20260905230203 38 240 1.6 3.2 0.00 0.00 0.00 36 1008.6
20260905225204 38 42 0.0 3.2 0.00 0.00 0.00 38 1008.5
20260905224704 37 43 0.0 1.6 0.00 0.00 0.00 38 1008.4
20260905224204 37 54 1.6 4.8 0.00 0.00 0.00 38 1008.4
20260905223703 38 65 1.6 3.2 0.00 0.00 0.00 37 1008.4
20260905223204 38 38 1.6 3.2 0.00 0.00 0.00 37 1008.4
20260905222704 38 50 3.2 9.7 0.00 0.00 0.00 37 1008.4
20260905222204 38 340 0.0 1.6 0.00 0.00 0.00 36 1008.4
20260905221704 38 63 0.0 3.2 0.00 0.00 0.00 37 1008.5
20260905221203 39 47 1.6 4.8 0.00 0.00 0.00 36 1008.5
20260905220703 39 58 0.0 4.8 0.00 0.00 0.00 37 1008.6
20260905220204 38 247 1.6 3.2 0.00 0.00 0.00 37 1008.6
20260905215704 38 212 1.6 3.2 0.00 0.00 0.00 39 1008.6
20260905215204 37 59 3.2 8.0 0.00 0.00 0.00 39 1008.8
20260905214704 38 6 3.2 8.0 0.00 0.00 0.00 39 1008.8
20260905213704 38 56 1.6 4.8 0.00 0.00 0.00 38 1008.9
20260905213204 38 260 0.0 3.2 0.00 0.00 0.00 40 1008.9
20260905212204 37 168 1.6 4.8 0.00 0.00 0.00 40 1009.0
20260905211704 37 163 1.6 3.2 0.00 0.00 0.00 40 1009.0
20260905211203 37 214 0.0 3.2 0.00 0.00 0.00 40 1009.2
20260905210704 37 253 0.0 3.2 0.00 0.00 0.00 40 1009.3
20260905210204 37 247 0.0 1.6 0.00 0.00 0.00 40 1009.3
20260905205704 37 257 0.0 1.6 0.00 0.00 0.00 41 1009.4
20260905205203 37 263 1.6 4.8 0.00 0.00 0.00 40 1009.5
20260905204704 37 275 1.6 9.7 0.00 0.00 0.00 40 1009.6
20260905204204 37 322 1.6 8.0 0.00 0.00 0.00 42 1009.7
20260905203704 37 0 1.6 9.7 0.00 0.00 0.00 41 1009.7
20260905203203 37 33 1.6 3.2 0.00 0.00 0.00 41 1009.8
20260905201704 37 57 1.6 11.3 0.00 0.00 0.00 41 1010.0
20260905201204 37 20 3.2 11.3 0.00 0.00 0.00 40 1010.1
20260905200204 38 297 0.0 4.8 0.00 0.00 0.00 41 1010.1
20260905195704 37 203 1.6 8.0 0.00 0.00 0.00 43 1010.2
20260905195204 37 83 4.8 11.3 0.00 0.00 0.00 42 1010.2
20260905194703 37 350 1.6 4.8 0.00 0.00 0.00 41 1010.4
20260905194204 37 251 3.2 4.8 0.00 0.00 0.00 43 1010.3
20260905193704 37 333 1.6 4.8 0.00 0.00 0.00 43 1010.4
20260905193203 37 286 4.8 12.9 0.00 0.00 0.00 43 1010.4
20260905192704 37 293 0.0 4.8 0.00 0.00 0.00 43 1010.6
20260905192204 37 294 1.6 4.8 0.00 0.00 0.00 45 1010.8
20260905191703 36 101 1.6 3.2 0.00 0.00 0.00 46 1010.8
20260905191204 36 116 0.0 1.6 0.00 0.00 0.00 47 1010.8
20260905190204 35 201 0.0 4.8 0.00 0.00 0.00 46 1011.0
20260905185703 36 251 0.0 1.6 0.00 0.00 0.00 45 1011.1
20260905185203 35 325 1.6 4.8 0.00 0.00 0.00 49 1011.2
20260905184704 35 51 0.0 8.0 0.00 0.00 0.00 49 1011.2
20260905183703 35 291 1.6 3.2 0.00 0.00 0.00 48 1011.4
20260905182704 35 322 1.6 19.3 0.00 0.00 0.00 50 1011.5
20260905182204 35 74 0.0 1.6 0.00 0.00 0.00 50 1011.7
20260905181704 35 64 1.6 3.2 0.00 0.00 0.00 49 1011.7
20260905181204 35 255 4.8 9.7 0.00 0.00 0.00 47 1011.7
20260905180704 36 263 1.6 9.7 0.00 0.00 0.00 48 1011.8
20260905175704 36 322 3.2 4.8 0.00 0.00 0.00 50 1011.9
20260905175204 35 249 1.6 11.3 0.00 0.00 0.00 49 1012.0
20260905174703 35 250 0.0 4.8 0.00 0.00 0.00 47 1012.0
20260905174203 35 42 3.2 4.8 0.00 0.00 0.00 47 1012.2
20260905173704 36 85 3.2 4.8 0.00 0.00 0.00 48 1012.3
20260905173204 35 205 1.6 9.7 0.00 0.00 0.00 50 1012.1
20260905172704 36 270 3.2 11.3 0.00 0.00 0.00 49 1012.2